Weather History for KNJM - November, 2013

Change the Weather History Date:

Tuesday, November 12, 2013

  Actual Average (KNKT) Record (KNKT)
Temperature  
Mean Temperature 52 °F -  
Max Temperature 68 °F 62 °F 80 °F (2003)
Min Temperature 36 °F 42 °F 30 °F (2007)
Degree Days  
Heating Degree Days 12    
Growing Degree Days 2 (Base 50)    
Moisture  
Dew Point 35 °F    
Average Humidity 61    
Maximum Humidity 93    
Minimum Humidity 31    
Precipitation  
Precipitation 0.00 in - - ()
Sea Level Pressure  
Sea Level Pressure 30.15 in    
Wind  
Wind Speed 6 mph (North)    
Max Wind Speed 22 mph    
Max Gust Speed 33 mph    
Visibility 10 miles    
Events Snow    
Averages and records for this station are not official NWS values.
T = Trace of Precipitation, MM = Missing Value Source: NWS Daily Summary

Daily Weather History Graph

Daily Weather History Graph

Search for Another Location

Airport or City:

Trip Planner

Search our weather history database for the weather conditions in past years. The results will help you decide how hot, cold, wet, or windy it might be!

Date:

Astronomy

Nov. 12, 2013 Rise Set
Actual Time 6:39 AM EST 5:04 PM EST
Civil Twilight 6:12 AM EST 5:31 PM EST
Nautical Twilight 5:42 AM EST 6:01 PM EST
Astronomical Twilight 5:12 AM EST 6:31 PM EST
Moon 2:07 PM EST (11/12) 1:38 AM EST (11/12)
Length of Visible Light 11h 18m
Length of Day
10h 25m
Waxing Gibbous, 76% of the Moon is Illuminated
Nov 12
Waxing Gibbous
Nov 17
Full
Nov 25
Last Quarter
Dec 2
New
Dec 9
First Quarter

Hourly Weather History & Observations

Time (EST) Temp. Windchill Dew Point Humidity Pressure Visibility Wind Dir Wind Speed Gust Speed Precip Events Conditions
12:57 AM 39.9 °F - 37.0 °F 89% 30.17 in 10.0 mi Calm Calm - N/A   Clear
1:57 AM 39.9 °F - 37.0 °F 89% 30.14 in 10.0 mi Calm Calm - N/A   Clear
2:57 AM 39.0 °F - 36.0 °F 89% 30.13 in 10.0 mi Calm Calm - N/A   Clear
3:57 AM 39.0 °F - 36.0 °F 89% 30.11 in 10.0 mi Calm Calm - N/A   Clear
4:57 AM 37.9 °F - 36.0 °F 93% 30.11 in 10.0 mi Calm Calm - N/A   Clear
5:57 AM 44.1 °F 40.8 °F 39.9 °F 85% 30.11 in 10.0 mi NNW 5.8 mph - N/A   Mostly Cloudy
6:57 AM 45.0 °F 43.5 °F 42.1 °F 90% 30.12 in 10.0 mi WNW 3.5 mph - N/A   Overcast
7:57 AM 50.0 °F - 43.0 °F 77% 30.11 in 10.0 mi NW 5.8 mph - N/A   Scattered Clouds
8:57 AM 55.9 °F - 44.1 °F 64% 30.12 in 10.0 mi WNW 3.5 mph - N/A   Scattered Clouds
9:57 AM 60.1 °F - 39.0 °F 46% 30.11 in 10.0 mi NW 4.6 mph - N/A   Partly Cloudy
10:57 AM 63.0 °F - 39.0 °F 41% 30.09 in 10.0 mi Variable 5.8 mph - N/A   Clear
11:57 AM 66.0 °F - 35.1 °F 32% 30.05 in 10.0 mi NW 11.5 mph - N/A   Clear
12:57 PM 66.9 °F - 37.0 °F 33% 30.04 in 10.0 mi NNW 8.1 mph - N/A   Clear
1:57 PM 68.0 °F - 36.0 °F 31% 30.04 in 10.0 mi North 9.2 mph 19.6 mph N/A   Clear
2:57 PM 66.0 °F - 36.0 °F 33% 30.05 in 10.0 mi NNE 8.1 mph 20.7 mph N/A   Scattered Clouds
3:57 PM 61.0 °F - 36.0 °F 39% 30.08 in 10.0 mi NNE 15.0 mph 24.2 mph N/A   Mostly Cloudy
4:57 PM 53.1 °F - 39.9 °F 61% 30.12 in 10.0 mi NNE 21.9 mph 33.4 mph N/A   Overcast
5:28 PM 51.1 °F - 39.0 °F 63% 30.14 in 10.0 mi NNE 21.9 mph 31.1 mph N/A   Overcast
5:57 PM 48.9 °F - 36.0 °F 61% 30.18 in 10.0 mi NE 17.3 mph 31.1 mph N/A   Overcast
6:26 PM 46.9 °F - 32.0 °F 56% 30.19 in 10.0 mi NNE 17.3 mph 29.9 mph N/A   Overcast
6:57 PM 45.0 °F 37.6 °F 28.9 °F 53% 30.23 in 10.0 mi North 17.3 mph 29.9 mph N/A   Overcast
7:57 PM 44.1 °F 36.2 °F 25.0 °F 47% 30.25 in 10.0 mi North 18.4 mph 27.6 mph N/A   Overcast
8:57 PM 42.1 °F 34.2 °F 23.0 °F 47% 30.30 in 10.0 mi North 16.1 mph 25.3 mph N/A   Overcast
9:57 PM 39.9 °F 30.8 °F 23.0 °F 51% 30.33 in 10.0 mi North 18.4 mph 32.2 mph N/A   Overcast
10:57 PM 37.0 °F 28.1 °F 26.1 °F 65% 30.34 in 10.0 mi North 15.0 mph 26.5 mph N/A   Overcast
11:57 PM 36.0 °F 27.5 °F 26.1 °F 67% 30.36 in 7.0 mi North 12.7 mph 24.2 mph 0.00 in Snow Light Snow